This is the latest recevied weather packets stored in our database for station/object IZ8NVY-10. If no packets are shown the sender has not sent any weather packets the latest 10 day(s).
| Time | Temp. | Humidity | Pressure | Rain* | Wind** | Luminosity | Snow |
|---|---|---|---|---|---|---|---|
| 1777918409 | 18.89° C | 47% | 981.9 hPa | - | - | - | - |
| 1777914809 | 21.11° C | 44% | 981.7 hPa | - | - | - | - |
| 1777911209 | 22.78° C | 40% | 981.5 hPa | - | - | - | - |
| 1777907610 | 27.22° C | 32% | 981.4 hPa | - | - | - | - |
| 1777904010 | 27.22° C | 32% | 981.6 hPa | - | - | - | - |
| 1777900409 | 29.44° C | 30% | 981.9 hPa | - | - | - | - |
| 1777896808 | 28.33° C | 32% | 982.4 hPa | - | - | - | - |
| 1777893209 | 27.78° C | 37% | 982.7 hPa | - | - | - | - |
| 1777889605 | 27.22° C | 39% | 983.5 hPa | - | - | - | - |
| 1777886010 | 25° C | 38% | 984 hPa | - | - | - | - |
| 1777882407 | 26.11° C | 36% | 983.9 hPa | - | - | - | - |
| 1777878806 | 26.67° C | 47% | 983.8 hPa | - | - | - | - |
| 1777875205 | 18.89° C | 64% | 983.8 hPa | - | - | - | - |
| 1777871605 | 13.33° C | 66% | 983.5 hPa | - | - | - | - |
| 1777868005 | 11.11° C | 66% | 983.3 hPa | - | - | - | - |
| 1777864406 | 12.22° C | 66% | 983.2 hPa | - | - | - | - |
| 1777860805 | 12.22° C | 69% | 983.5 hPa | - | - | - | - |
| 1777857206 | 12.22° C | 67% | 983.5 hPa | - | - | - | - |
| 1777853603 | 12.78° C | 66% | 983.4 hPa | - | - | - | - |
| 1777850003 | 13.33° C | 66% | 983.5 hPa | - | - | - | - |
| 1777846402 | 13.33° C | 65% | 983.9 hPa | - | - | - | - |
| 1777842805 | 14.44° C | 59% | 983.5 hPa | - | - | - | - |
| 1777839204 | 14.44° C | 59% | 983.3 hPa | - | - | - | - |
| 1777835604 | 15.56° C | 55% | 982.8 hPa | - | - | - | - |
| 1777832000 | 17.22° C | 49% | 982.4 hPa | - | - | - | - |
* Rain since midnight (hover to see other rain measurements)
** Current wind speed in m/s (hover to see current wind gust speed)